Weather History for KFLG - January, 2012

Change the Weather History Date:

Tuesday, January 24, 2012

  Actual Average Record
Temperature  
Mean Temperature 26 °F 30 °F  
Max Temperature 38 °F 43 °F 61 °F (1982)
Min Temperature 13 °F 18 °F -15 °F (1964)
Degree Days  
Heating Degree Days 39 35  
Month to date heating degree days 742 846  
Since 1 July heating degree days 3535 3674  
Cooling Degree Days 0 0  
Month to date cooling degree days 0 0  
Year to date cooling degree days 0 0  
Moisture  
Dew Point 19 °F    
Average Humidity 66    
Maximum Humidity 92    
Minimum Humidity 40    
Precipitation  
Precipitation 0.00 in 0.06 in 1.11 in (1944)
Month to date precipitation 0.42 1.61  
Year to date precipitation 0.42 1.61  
Snow  
Snow 0.00 in 0.70 in 19.90 in (1949)
Month to date snowfall 4.6 17.5  
Since 1 July snowfall 50.2 46.6  
Snow Depth 1.00 in    
Sea Level Pressure  
Sea Level Pressure 30.03 in    
Wind  
Wind Speed 13 mph (NE)    
Max Wind Speed 30 mph    
Max Gust Speed 39 mph    
Visibility 10 miles    
Events      
T = Trace of Precipitation, MM = Missing Value Source: NWS Daily Summary

Daily Weather History Graph

Daily Weather History Graph

Search for Another Location

Airport or City:

Trip Planner

Search our weather history database for the weather conditions in past years. The results will help you decide how hot, cold, wet, or windy it might be!

Date:

Astronomy

Jan. 24, 2012 Rise Set
Actual Time 7:31 AM MST 5:46 PM MST
Civil Twilight 7:04 AM MST 6:13 PM MST
Nautical Twilight 6:33 AM MST 6:44 PM MST
Astronomical Twilight 6:03 AM MST 7:14 PM MST
Moon 8:07 AM MST (1/24) 7:35 PM MST (1/24)
Length of Visible Light 11h 09m
Length of Day
10h 15m
Waxing Crescent, 3% of the Moon is Illuminated
Jan 24
Waxing Crescent
Jan 30
First Quarter
Feb 7
Full
Feb 14
Last Quarter
Feb 21
New

Hourly Weather History & Observations

Time (MST) Temp. Windchill Dew Point Humidity Pressure Visibility Wind Dir Wind Speed Gust Speed Precip Events Conditions
12:23 AM 26.6 °F - 24.8 °F 93% 29.89 in 10.0 mi Calm Calm - N/A   Mostly Cloudy
12:57 AM 27.0 °F - 25.0 °F 92% 29.86 in 10.0 mi Calm Calm - N/A   Overcast
1:30 AM 23.0 °F - 21.2 °F 93% 29.89 in 10.0 mi Calm Calm - N/A   Scattered Clouds
1:57 AM 24.1 °F - 21.9 °F 91% 29.88 in 10.0 mi Calm Calm - N/A   Clear
2:57 AM 26.1 °F - 23.0 °F 88% 29.90 in 10.0 mi Calm Calm - N/A   Clear
3:57 AM 26.1 °F 20.5 °F 21.9 °F 84% 29.91 in 10.0 mi NNW 4.6 mph - N/A   Clear
4:57 AM 18.0 °F - 16.0 °F 92% 29.96 in 10.0 mi Calm Calm - N/A   Clear
5:57 AM 17.1 °F - 15.1 °F 92% 29.98 in 10.0 mi Calm Calm - N/A   Clear
6:57 AM 12.9 °F - 10.9 °F 92% 30.01 in 10.0 mi Calm Calm - N/A   Clear
7:57 AM 21.9 °F - 19.0 °F 89% 29.99 in 10.0 mi Calm Calm - N/A   Clear
8:17 AM 28.4 °F 16.6 °F 21.2 °F 74% 29.96 in 10.0 mi ENE 16.1 mph 21.9 mph N/A   Clear
8:57 AM 28.9 °F 17.3 °F 21.9 °F 75% 29.97 in 10.0 mi ENE 16.1 mph 25.3 mph N/A   Clear
9:57 AM 32.0 °F 19.2 °F 21.9 °F 66% 29.98 in 10.0 mi NE 23.0 mph 34.5 mph N/A   Clear
10:57 AM 33.1 °F 20.9 °F 24.1 °F 70% 30.01 in 10.0 mi NE 21.9 mph 31.1 mph N/A   Clear
11:57 AM 35.1 °F 24.1 °F 19.9 °F 54% 30.03 in 10.0 mi NE 19.6 mph 38.0 mph N/A   Clear
12:57 PM 33.1 °F 20.9 °F 23.0 °F 66% 30.04 in 10.0 mi NE 21.9 mph 36.8 mph N/A   Clear
1:57 PM 35.1 °F 23.5 °F 23.0 °F 61% 30.03 in 10.0 mi NE 21.9 mph 33.4 mph N/A   Clear
2:57 PM 37.9 °F 28.9 °F 19.9 °F 48% 30.04 in 10.0 mi ENE 16.1 mph 25.3 mph N/A   Clear
3:57 PM 37.0 °F 26.7 °F 19.9 °F 50% 30.06 in 10.0 mi NE 19.6 mph 29.9 mph N/A   Clear
4:57 PM 36.0 °F 29.0 °F 14.0 °F 41% 30.14 in 10.0 mi ENE 9.2 mph 25.3 mph N/A   Clear
5:57 PM 33.1 °F 21.9 °F 12.9 °F 43% 30.17 in 10.0 mi NE 18.4 mph 29.9 mph N/A   Clear
6:57 PM 30.9 °F 18.7 °F 16.0 °F 54% 30.23 in 10.0 mi NE 19.6 mph 31.1 mph N/A   Clear
7:57 PM 30.0 °F 18.7 °F 17.1 °F 59% 30.18 in 10.0 mi ENE 16.1 mph 25.3 mph N/A   Clear
8:57 PM 30.0 °F 18.3 °F 16.0 °F 56% 30.18 in 10.0 mi ENE 17.3 mph 31.1 mph N/A   Clear
9:57 PM 30.9 °F 17.5 °F 15.1 °F 52% 30.17 in 10.0 mi NE 24.2 mph 35.7 mph N/A   Clear
10:57 PM 30.0 °F 17.2 °F 18.0 °F 61% 30.17 in 10.0 mi ENE 20.7 mph 35.7 mph N/A   Clear
11:57 PM 28.9 °F 16.9 °F 19.0 °F 67% 30.18 in 10.0 mi ENE 17.3 mph 24.2 mph N/A   Clear